Location: Star Hoppers Observatory
(42.7905°N, 83.6127°W)
Time: 20:28:26
(UTC-05:00)

Amateur Radio Satellites - All Passes

Search period start: 17 December 2017 19:58
Search period end: 18 December 2017 19:58
Location: Star Hoppers Observatory, 42.7905°N, 83.6127°W

Satellite Date Start Highest point End Downlink Frequencies (MHz)
Time Altitude Azimuth
XW-2A 17 Dec 19:59:46 20:02:56 40° 262° (W) 20:06:09 145.665 - 145.685
Oscar 11 17 Dec 20:02:26 20:06:41 62° 75° (ENE) 20:10:59 .
DELFI C3 17 Dec 20:02:35 20:04:08 12° 63° (ENE) 20:05:42 145.870
BEESAT 2 17 Dec 20:03:20 20:06:49 29° 115° (ESE) 20:10:21 435.950
RS-15 17 Dec 20:08:25 20:18:05 26° 11° (N) 20:27:23 29.354- 29.394
HO-68 17 Dec 20:10:57 20:16:32 24° 268° (W) 20:22:08 435.675
STRAND 1 17 Dec 20:19:18 20:24:26 85° 286° (WNW) 20:29:31 437.568
AO-73 17 Dec 20:20:57 20:24:58 52° 260° (W) 20:29:03 145.935
PCSat 17 Dec 20:42:26 20:45:27 15° 323° (NW) 20:48:28 145.827
BEESAT 3 17 Dec 20:52:37 20:56:00 26° 313° (NW) 20:59:27 437.485
Max Valier Satellite 17 Dec 21:01:09 21:04:27 33° 72° (ENE) 21:07:49 145.860
FO-29 17 Dec 21:08:27 21:15:18 82° 103° (ESE) 21:21:15 435.910
TIGRISAT 17 Dec 21:16:27 21:18:32 13° 91° (E) 21:20:36 435.000
UNISAT 6 17 Dec 21:20:11 21:22:54 16° 92° (E) 21:25:38 437.425
EO-88 17 Dec 21:20:42 21:24:07 39° 72° (ENE) 21:27:33 145.990 - 145.960
FALCONSAT 3 17 Dec 21:27:39 21:30:05 17° 163° (SSE) 21:32:31 435.103
DELFI C3 17 Dec 21:34:25 21:38:21 61° 259° (WSW) 21:42:19 145.870
BEESAT 2 17 Dec 21:40:57 21:44:30 29° 313° (NW) 21:48:04 435.950
Oscar 11 17 Dec 21:41:30 21:43:14 12° 271° (W) 21:44:57 .
SO-50 17 Dec 21:57:14 21:59:32 13° 34° (NE) 22:01:49 436.795
AO-85 17 Dec 21:58:30 22:02:24 73° 304° (NW) 22:06:33 145.980
STRAND 1 17 Dec 22:00:59 22:02:48 12° 303° (WNW) 22:04:37 437.568
RS-15 17 Dec 22:22:44 22:34:18 51° 43° (NE) 22:45:14 29.354- 29.394
PRISM 17 Dec 22:29:16 22:32:31 22° 95° (E) 22:35:43 437.425
Max Valier Satellite 17 Dec 22:36:05 22:38:23 16° 268° (W) 22:40:42 145.860
ESTCUBE 1 17 Dec 22:41:30 22:45:43 40° 70° (ENE) 22:49:58 437.505/2401.250
TIGRISAT 17 Dec 22:51:15 22:55:33 60° 286° (WNW) 22:59:57 435.000
FO-29 17 Dec 22:54:52 22:59:21 19° 305° (NW) 23:03:30 435.910
UNISAT 6 17 Dec 22:55:37 22:59:50 49° 287° (WNW) 23:04:08 437.425
EO-88 17 Dec 22:56:04 22:57:55 13° 269° (W) 22:59:47 145.990 - 145.960
FALCONSAT 3 17 Dec 23:05:28 23:08:35 26° 178° (S) 23:11:41 435.103
LO-87 17 Dec 23:12:59 23:16:29 63° 259° (W) 23:20:00 145.935 - 145.965
AIST 2D 17 Dec 23:31:35 23:35:00 44° 99° (E) 23:38:23 435.315
SO-50 17 Dec 23:36:11 23:40:50 68° 54° (NE) 23:45:33 436.795
QB50P2 17 Dec 23:39:30 23:42:36 20° 93° (E) 23:45:42 145.880/145.840
DUCHIFAT 1 17 Dec 23:39:34 23:41:35 13° 91° (E) 23:43:35 145.980
AO-85 17 Dec 23:42:10 23:43:40 12° 327° (NNW) 23:45:10 145.980
VELOX 1 17 Dec 23:59:04 00:03:13 40° 70° (ENE) 00:07:23 145.980
PRISM 18 Dec 00:04:12 00:07:46 30° 291° (WNW) 00:11:20 437.425
NANOSAT C BR1 18 Dec 00:06:44 00:10:29 30° 96° (E) 00:14:13 145.865
SPROUT 18 Dec 00:11:32 00:15:46 88° 86° (E) 00:20:03 437.525
ESTCUBE 1 18 Dec 00:19:18 00:22:40 20° 267° (W) 00:26:02 437.505/2401.250
UKube-1 18 Dec 00:23:43 00:24:16 10° 59° (ENE) 00:24:50 .
EO-79 18 Dec 00:24:17 00:28:26 54° 100° (E) 00:32:34 145.935-145.965
RS-15 18 Dec 00:35:40 00:46:54 55° 248° (WSW) 00:57:34 29.354- 29.394
DX 1 18 Dec 00:43:46 00:47:24 27° 67° (ENE) 00:51:05 434.975-435.025
FALCONSAT 3 18 Dec 00:44:23 00:47:06 20° 194° (SSW) 00:49:49 435.103
50 SAT 18 Dec 00:45:53 00:48:18 20° 69° (ENE) 00:50:43 437.505
Oscar 19 18 Dec 00:47:35 00:49:27 12° 88° (E) 00:51:18 437.125/150
POLYITAN 1 18 Dec 00:48:16 00:52:30 80° 286° (WNW) 00:56:45 437.675
AIST 2D 18 Dec 01:06:15 01:07:45 12° 295° (WNW) 01:09:15 435.315
DUCHIFAT 1 18 Dec 01:13:26 01:17:34 54° 286° (WNW) 01:21:39 145.980
QB50P2 18 Dec 01:14:36 01:18:29 36° 290° (WNW) 01:22:23 145.880/145.840
SO-50 18 Dec 01:18:06 01:20:47 15° 251° (WSW) 01:23:28 436.795
AO-91 18 Dec 01:24:54 01:27:19 18° 94° (E) 01:29:43 145.960
VELOX 1 18 Dec 01:36:30 01:39:48 20° 267° (W) 01:43:05 145.980
YUBILEINY 18 Dec 01:38:44 01:44:43 21° 78° (ENE) 01:50:42 435.215
BUGSAT 1 18 Dec 01:39:15 01:43:17 66° 101° (E) 01:47:21 437.445
NANOSAT C BR1 18 Dec 01:42:39 01:46:02 24° 293° (WNW) 01:49:25 145.865
BEESAT 18 Dec 01:46:54 01:49:14 14° 60° (ENE) 01:51:36 436.000
UKube-1 18 Dec 01:55:16 01:59:35 86° 257° (WSW) 02:03:56 .
Gurwin Techsat 1B 18 Dec 01:56:23 02:01:23 39° 98° (E) 02:06:20 435.225
PCSat 18 Dec 02:00:09 02:04:11 20° 42° (NE) 02:08:10 145.827
EO-79 18 Dec 02:01:25 02:03:44 15° 297° (WNW) 02:06:03 145.935-145.965
ITUPSAT 1 18 Dec 02:16:00 02:19:51 25° 65° (ENE) 02:23:43 437.325
50 SAT 18 Dec 02:17:49 02:20:08 19° 265° (W) 02:22:29 437.505
DX 1 18 Dec 02:19:39 02:23:29 29° 263° (W) 02:27:20 434.975-435.025
Oscar 19 18 Dec 02:24:10 02:29:24 85° 286° (WNW) 02:34:37 437.125/150
CUBESAT XI-V 18 Dec 02:27:19 02:29:04 12° 60° (ENE) 02:30:49 437.345
MOZHAYETS 4 18 Dec 02:28:04 02:32:23 44° 71° (ENE) 02:36:44
AO-91 18 Dec 03:01:05 03:03:50 23° 291° (WNW) 03:06:33 145.960
BUGSAT 1 18 Dec 03:16:44 03:18:07 11° 298° (WNW) 03:19:28 437.445
BEESAT 18 Dec 03:21:39 03:26:23 75° 257° (WSW) 03:31:09 436.000
AO-7 18 Dec 03:29:17 03:37:04 40° 99° (E) 03:44:47 .
BEESAT 3 18 Dec 03:30:31 03:33:53 26° 46° (NE) 03:37:12 437.485
YUBILEINY 18 Dec 03:31:30 03:40:21 84° 278° (W) 03:49:15 435.215
Gurwin Techsat 1B 18 Dec 03:36:40 03:41:08 28° 295° (WNW) 03:45:37 435.225
PCSat 18 Dec 03:42:45 03:48:10 76° 242° (WSW) 03:53:34 145.827
ITAMSAT 1 18 Dec 03:44:51 03:49:26 31° 96° (E) 03:53:58 435.822/435.867
M-CUBED/EXP-1 PRIME 18 Dec 03:49:15 03:53:05 28° 100° (E) 03:56:41 437.505
KKS-1 18 Dec 03:51:47 03:54:38 17° 63° (ENE) 03:57:29 437.445
ITUPSAT 1 18 Dec 03:53:05 03:57:28 37° 262° (W) 04:01:54 437.325
CUBESAT XI-V 18 Dec 04:01:03 04:05:43 84° 257° (WSW) 04:10:27 437.345
Oscar 19 18 Dec 04:05:51 04:07:53 12° 303° (WNW) 04:09:57 437.125/150
MOZHAYETS 4 18 Dec 04:06:34 04:09:45 19° 268° (W) 04:12:57
BEESAT 2 18 Dec 04:19:47 04:23:11 25° 46° (NE) 04:26:31 435.950
STARS 18 Dec 04:24:12 04:26:37 15° 62° (ENE) 04:29:02 437.465
AO-85 18 Dec 04:48:23 04:51:52 20° 41° (NE) 04:55:31 145.980
DOVE 4 18 Dec 04:57:15 05:01:09 30° 95° (E) 05:04:53 437.250
BEESAT 3 18 Dec 05:07:56 05:11:25 31° 245° (WSW) 05:14:50 437.485
AO-7 18 Dec 05:21:59 05:29:55 50° 298° (WNW) 05:37:51 .
M-CUBED/EXP-1 PRIME 18 Dec 05:23:31 05:27:22 29° 298° (WNW) 05:31:01 437.505
ITAMSAT 1 18 Dec 05:24:14 05:28:52 34° 293° (WNW) 05:33:28 435.822/435.867
KKS-1 18 Dec 05:26:26 05:30:46 52° 260° (W) 05:35:08 437.445
NO-84 18 Dec 05:26:47 05:29:24 30° 132° (SE) 05:32:10 435.350 FM
YUBILEINY 18 Dec 05:32:46 05:38:36 19° 300° (WNW) 05:44:29 435.215
XW-2C 18 Dec 05:38:03 05:39:57 13° 91° (E) 05:41:49 145.795 - 145.815
CUTE-I 18 Dec 05:39:35 05:42:22 14° 89° (E) 05:45:09 437.470
FO-29 18 Dec 05:42:44 05:43:10 10° 47° (NE) 05:43:37 435.910
HO-68 18 Dec 05:53:24 05:53:34 10° 85° (E) 05:53:44 435.675
BEESAT 2 18 Dec 05:57:17 06:00:57 34° 244° (WSW) 06:04:33 435.950
STARS 18 Dec 05:58:08 06:02:28 59° 259° (W) 06:06:49 437.465
STRAND 1 18 Dec 05:58:39 06:02:17 20° 62° (ENE) 06:05:55 437.568
NUDT-PHONESAT 18 Dec 06:14:20 06:17:23 23° 95° (E) 06:20:25 437.300
LilacSat-2 18 Dec 06:18:01 06:21:45 42° 98° (E) 06:25:25 437.200
KAITUO 1B 18 Dec 06:24:55 06:28:23 33° 97° (E) 06:31:49 145.475/437.950
XW-2D 18 Dec 06:26:51 06:30:38 52° 100° (E) 06:34:23 145.860 - 145.880
AO-85 18 Dec 06:27:55 06:32:44 74° 239° (WSW) 06:37:53 145.980
DOVE 4 18 Dec 06:35:08 06:38:43 24° 294° (WNW) 06:42:09 437.250
XW-2B 18 Dec 06:42:50 06:46:43 80° 104° (ESE) 06:50:32 145.730 - 145.750
XW-2F 18 Dec 06:51:20 06:55:12 86° 286° (WNW) 06:59:01 145.980 - 146.000
NO-84 18 Dec 07:03:58 07:06:37 27° 332° (NNW) 07:09:26 435.350 FM
SEEDS 18 Dec 07:05:31 07:08:47 21° 93° (E) 07:12:01 437.485
XW-2C 18 Dec 07:10:39 07:14:21 45° 287° (WNW) 07:18:01 145.795 - 145.815
AAUSAT CUBESAT 2 18 Dec 07:14:08 07:15:02 11° 89° (E) 07:15:56 437.432
CUTE-I 18 Dec 07:17:39 07:22:58 74° 287° (WNW) 07:28:15 437.470
AO-7 18 Dec 07:17:41 07:20:41 12° 320° (NW) 07:23:42 .
FO-29 18 Dec 07:19:02 07:26:21 46° 66° (ENE) 07:33:37 435.910
UWE-3 18 Dec 07:20:55 07:23:58 18° 93° (E) 07:27:04 435.000/436.395/437.385
XW-2A 18 Dec 07:22:19 07:22:59 10° 91° (E) 07:23:39 145.665 - 145.685
CUBEBUG 2 18 Dec 07:28:55 07:32:57 38° 98° (E) 07:37:05 437.445
HO-68 18 Dec 07:35:27 07:42:36 66° 103° (ESE) 07:49:41 435.675
CUTE 1.7 + AOD 2 18 Dec 07:35:38 07:39:58 77° 103° (ESE) 07:44:13 437.475
STRAND 1 18 Dec 07:36:02 07:41:03 55° 259° (W) 07:46:04 437.568
ZACube-1 18 Dec 07:37:23 07:39:51 15° 91° (E) 07:42:20 437.345
O/OREOS (USA 219) 18 Dec 07:42:03 07:46:19 39° 106° (ESE) 07:50:34 437.305
NUDT-PHONESAT 18 Dec 07:48:04 07:51:08 24° 291° (WNW) 07:54:13 437.300
Oscar 11 18 Dec 07:51:10 07:52:22 11° 89° (E) 07:53:33 .
LilacSat-2 18 Dec 07:53:22 07:55:39 15° 295° (WNW) 07:57:56 437.200
KAITUO 1B 18 Dec 07:59:28 08:02:06 18° 293° (WNW) 08:04:42 145.475/437.950
XW-2D 18 Dec 08:02:37 08:04:20 13° 296° (WNW) 08:06:03 145.860 - 145.880
AO-73 18 Dec 08:07:45 08:11:31 27° 95° (E) 08:15:19 145.935
TIGRISAT 18 Dec 08:16:35 08:18:30 13° 62° (ENE) 08:20:25 435.000
UNISAT 6 18 Dec 08:20:20 08:22:51 16° 64° (ENE) 08:25:22 437.425
SEEDS 18 Dec 08:40:41 08:44:31 34° 290° (WNW) 08:48:19 437.485
NO-84 18 Dec 08:43:41 08:44:48 11° 353° (N) 08:45:58 435.350 FM
AAUSAT CUBESAT 2 18 Dec 08:46:47 08:50:55 66° 286° (WNW) 08:55:00 437.432
XW-2A 18 Dec 08:52:37 08:55:55 44° 287° (WNW) 08:59:12 145.665 - 145.685
UWE-3 18 Dec 08:56:27 09:00:34 42° 288° (WNW) 09:04:47 435.000/436.395/437.385
CUTE-I 18 Dec 09:00:41 09:02:05 11° 305° (NW) 09:03:28 437.470
FO-29 18 Dec 09:03:59 09:11:18 43° 264° (W) 09:18:39 435.910
CUBEBUG 2 18 Dec 09:06:09 09:09:19 21° 294° (WNW) 09:12:35 437.445
DELFI C3 18 Dec 09:11:24 09:13:44 15° 91° (E) 09:16:04 145.870
ZACube-1 18 Dec 09:12:07 09:16:25 54° 286° (WNW) 09:20:46 437.345
CUTE 1.7 + AOD 2 18 Dec 09:13:55 09:15:08 11° 299° (WNW) 09:16:21 437.475
PRISM 18 Dec 09:19:19 09:22:17 19° 65° (ENE) 09:25:15 437.425
O/OREOS (USA 219) 18 Dec 09:22:11 09:25:51 23° 304° (NW) 09:29:31 437.305
HO-68 18 Dec 09:24:02 09:29:47 27° 302° (WNW) 09:35:30 435.675
Oscar 11 18 Dec 09:24:37 09:28:58 70° 285° (WNW) 09:33:18 .
nSIGHT-1 18 Dec 09:42:51 09:45:18 20° 134° (SE) 09:47:45 .
AO-73 18 Dec 09:43:53 09:47:42 29° 291° (WNW) 09:51:34 145.935
TIGRISAT 18 Dec 09:50:27 09:54:41 63° 259° (W) 09:58:54 435.000
UNISAT 6 18 Dec 09:54:59 09:59:09 50° 260° (W) 10:03:19 437.425
Max Valier Satellite 18 Dec 10:03:17 10:06:52 41° 99° (E) 10:10:23 145.860
AIST 2D 18 Dec 10:06:54 10:09:23 18° 68° (ENE) 10:11:54 435.315
NO-84 18 Dec 10:21:23 10:23:17 14° 15° (NNE) 10:25:15 435.350 FM
EO-88 18 Dec 10:21:30 10:25:03 46° 99° (E) 10:28:35 145.990 - 145.960
DUCHIFAT 1 18 Dec 10:32:59 10:34:24 12° 61° (ENE) 10:35:49 145.980
QB50P2 18 Dec 10:33:13 10:35:57 17° 64° (ENE) 10:38:41 145.880/145.840
ISS 18 Dec 10:38:52 10:42:04 53° 141° (SE) 10:45:17 437.550
DELFI C3 18 Dec 10:44:57 10:48:40 40° 288° (WNW) 10:52:20 145.870
PRISM 18 Dec 10:53:24 10:57:17 38° 262° (W) 11:01:11 437.425
NANOSAT C BR1 18 Dec 10:59:34 11:02:59 25° 68° (ENE) 11:06:24 145.865
EO-79 18 Dec 11:17:06 11:21:04 44° 72° (ENE) 11:25:03 145.935-145.965
nSIGHT-1 18 Dec 11:18:07 11:21:16 51° 331° (NNW) 11:24:27 .
Max Valier Satellite 18 Dec 11:38:13 11:40:19 15° 295° (WNW) 11:42:24 145.860
AIST 2D 18 Dec 11:39:21 11:42:22 27° 264° (W) 11:45:25 435.315
POLYITAN 1 18 Dec 11:41:02 11:45:13 82° 74° (ENE) 11:49:25 437.675
Gurwin Techsat 1B 18 Dec 11:44:04 11:44:26 10° 55° (NE) 11:44:48 435.225
EO-88 18 Dec 11:56:36 11:58:17 13° 296° (WNW) 11:59:57 145.990 - 145.960
SPROUT 18 Dec 11:57:39 11:59:52 14° 91° (E) 12:02:04 437.525
NO-84 18 Dec 11:57:48 12:01:15 42° 34° (NE) 12:04:58 435.350 FM
Oscar 19 18 Dec 12:04:18 12:08:02 21° 62° (ENE) 12:11:47 437.125/150
DUCHIFAT 1 18 Dec 12:05:21 12:09:29 69° 259° (WSW) 12:13:38 145.980
QB50P2 18 Dec 12:07:22 12:11:22 44° 261° (W) 12:15:25 145.880/145.840
ESTCUBE 1 18 Dec 12:09:16 12:13:50 80° 103° (ESE) 12:18:22 437.505/2401.250
LO-87 18 Dec 12:11:54 12:15:24 57° 285° (WNW) 12:18:53 145.935 - 145.965
ISS 18 Dec 12:15:47 12:18:42 28° 340° (NNW) 12:21:37 437.550
AO-91 18 Dec 12:21:58 12:25:39 24° 69° (ENE) 12:29:04 145.960
BUGSAT 1 18 Dec 12:29:22 12:33:14 49° 73° (ENE) 12:37:08 437.445
NANOSAT C BR1 18 Dec 12:34:58 12:38:34 28° 264° (W) 12:42:12 145.865
AO-7 18 Dec 12:41:45 12:45:53 15° 43° (NE) 12:50:03 .
RS-15 18 Dec 12:49:09 12:58:24 26° 101° (E) 13:07:35 29.354- 29.394
EO-79 18 Dec 12:54:25 12:57:02 16° 268° (W) 12:59:40 145.935-145.965
nSIGHT-1 18 Dec 12:55:39 12:58:01 19° 351° (N) 13:00:23 .
Gurwin Techsat 1B 18 Dec 13:18:06 13:23:23 69° 73° (ENE) 13:28:41 435.225
VELOX 1 18 Dec 13:24:02 13:28:26 71° 101° (ESE) 13:32:48 145.980
SPROUT 18 Dec 13:31:55 13:36:03 52° 287° (WNW) 13:40:11 437.525
50 SAT 18 Dec 13:32:59 13:34:45 14° 94° (E) 13:36:30 437.505
NO-84 18 Dec 13:35:11 13:38:26 28° 229° (SW) 13:41:53 435.350 FM
YUBILEINY 18 Dec 13:40:55 13:49:30 52° 75° (ENE) 13:57:57 435.215
Oscar 19 18 Dec 13:41:55 13:46:56 54° 260° (W) 13:52:01 437.125/150
UKube-1 18 Dec 13:42:47 13:45:07 14° 92° (E) 13:47:26 .
ESTCUBE 1 18 Dec 13:48:17 13:49:58 12° 300° (WNW) 13:51:39 437.505/2401.250
SO-50 18 Dec 13:52:46 13:55:36 17° 110° (ESE) 13:58:28 436.795
ISS 18 Dec 13:53:39 13:55:56 17° 360° (N) 13:58:14 437.550
AO-91 18 Dec 13:57:41 14:01:58 34° 262° (W) 14:05:54 145.960
DX 1 18 Dec 14:06:17 14:10:25 41° 99° (E) 14:14:31 434.975-435.025
BUGSAT 1 18 Dec 14:06:54 14:08:52 13° 269° (W) 14:10:50 437.445
AO-7 18 Dec 14:28:52 14:36:56 59° 65° (ENE) 14:45:05 .
nSIGHT-1 18 Dec 14:32:38 14:35:04 19° 11° (N) 14:37:29 .
M-CUBED/EXP-1 PRIME 18 Dec 14:34:18 14:38:28 41° 65° (ENE) 14:42:49 437.505
RS-15 18 Dec 14:56:57 15:09:20 90° 302° (WNW) 15:21:37 29.354- 29.394
Gurwin Techsat 1B 18 Dec 15:00:41 15:03:49 16° 270° (W) 15:06:57 435.225
VELOX 1 18 Dec 15:02:25 15:04:16 13° 299° (WNW) 15:06:08 145.980
ITAMSAT 1 18 Dec 15:03:21 15:08:23 53° 71° (ENE) 15:13:26 435.822/435.867
50 SAT 18 Dec 15:04:01 15:06:43 26° 289° (WNW) 15:09:23 437.505
UKube-1 18 Dec 15:17:15 15:21:27 53° 288° (WNW) 15:25:37 .
BEESAT 18 Dec 15:21:16 15:25:14 25° 95° (E) 15:29:10 436.000
ISS 18 Dec 15:30:16 15:33:11 28° 20° (NNE) 15:36:06 437.550
SO-50 18 Dec 15:31:13 15:35:36 56° 308° (NW) 15:40:04 436.795
YUBILEINY 18 Dec 15:38:13 15:45:58 36° 275° (W) 15:53:40 435.215
DX 1 18 Dec 15:43:13 15:46:18 19° 296° (WNW) 15:49:22 434.975-435.025
ITUPSAT 1 18 Dec 15:52:08 15:56:47 50° 100° (E) 16:01:26 437.325
CUBESAT XI-V 18 Dec 15:57:17 16:01:02 23° 93° (E) 16:04:45 437.345
MOZHAYETS 4 18 Dec 15:58:45 16:03:24 86° 287° (WNW) 16:08:03
DOVE 4 18 Dec 16:02:13 16:07:02 39° 70° (ENE) 16:11:40 437.250
nSIGHT-1 18 Dec 16:08:34 16:11:45 59° 30° (NNE) 16:14:56 .
M-CUBED/EXP-1 PRIME 18 Dec 16:09:31 16:12:57 22° 262° (W) 16:16:32 437.505
O/OREOS (USA 219) 18 Dec 16:13:54 16:15:22 11° 48° (NE) 16:16:49 437.305
AO-7 18 Dec 16:22:51 16:30:04 33° 264° (W) 16:37:23 .
HO-68 18 Dec 16:23:35 16:25:20 11° 46° (NE) 16:27:04 435.675
ITAMSAT 1 18 Dec 16:44:22 16:48:08 20° 267° (W) 16:51:55 435.822/435.867
PCSat 18 Dec 16:45:50 16:47:37 12° 102° (ESE) 16:49:24 145.827
NUDT-PHONESAT 18 Dec 16:55:11 16:56:51 13° 64° (ENE) 16:58:31 437.300
BEESAT 18 Dec 16:58:43 17:03:03 35° 292° (WNW) 17:07:22 436.000
LilacSat-2 18 Dec 17:00:46 17:03:52 24° 69° (ENE) 17:07:00 437.200
CUTE-I 18 Dec 17:01:26 17:05:51 27° 64° (ENE) 17:10:18 437.470
KAITUO 1B 18 Dec 17:05:57 17:08:33 18° 67° (ENE) 17:11:11 145.475/437.950
ISS 18 Dec 17:06:36 17:09:50 54° 218° (SW) 17:13:03 437.550
XW-2D 18 Dec 17:08:43 17:11:59 28° 70° (ENE) 17:15:16 145.860 - 145.880
RS-15 18 Dec 17:12:33 17:23:36 36° 329° (NNW) 17:34:28 29.354- 29.394
SO-50 18 Dec 17:15:36 17:17:04 11° 329° (NNW) 17:18:32 436.795
KKS-1 18 Dec 17:16:41 17:20:27 27° 96° (E) 17:24:10 437.445
XW-2B 18 Dec 17:24:25 17:27:59 40° 72° (ENE) 17:31:35 145.730 - 145.750
ITUPSAT 1 18 Dec 17:30:52 17:34:14 19° 297° (WNW) 17:37:35 437.325
XW-2F 18 Dec 17:32:21 17:35:59 47° 73° (ENE) 17:39:40 145.980 - 146.000
CUBESAT XI-V 18 Dec 17:34:09 17:38:30 38° 290° (WNW) 17:42:49 437.345
MOZHAYETS 4 18 Dec 17:39:03 17:39:48 10° 301° (WNW) 17:40:31
DOVE 4 18 Dec 17:40:22 17:44:44 27° 266° (W) 17:49:00 437.250
nSIGHT-1 18 Dec 17:45:27 17:47:40 17° 227° (SW) 17:49:52 .
STARS 18 Dec 17:47:01 17:50:27 22° 94° (E) 17:53:51 437.465
O/OREOS (USA 219) 18 Dec 17:50:58 17:55:30 87° 68° (ENE) 17:59:58 437.305
XW-2C 18 Dec 17:51:51 17:55:38 89° 249° (WSW) 17:59:29 145.795 - 145.815
SEEDS 18 Dec 17:58:16 18:01:03 17° 65° (ENE) 18:03:49 437.485
HO-68 18 Dec 18:04:32 18:11:27 53° 67° (ENE) 18:18:23 435.675
UWE-3 18 Dec 18:19:25 18:21:54 16° 64° (ENE) 18:24:23 435.000/436.395/437.385
PCSat 18 Dec 18:24:43 18:30:08 86° 119° (ESE) 18:35:36 145.827
NUDT-PHONESAT 18 Dec 18:26:41 18:30:15 47° 261° (W) 18:33:52 437.300
CUBEBUG 2 18 Dec 18:27:53 18:31:37 33° 71° (ENE) 18:35:21 437.445
CUTE 1.7 + AOD 2 18 Dec 18:28:31 18:32:41 58° 74° (ENE) 18:36:54 437.475
LilacSat-2 18 Dec 18:34:52 18:38:03 25° 265° (W) 18:41:15 437.200
ZACube-1 18 Dec 18:35:04 18:36:44 12° 62° (ENE) 18:38:23 437.345
KAITUO 1B 18 Dec 18:38:53 18:42:16 32° 263° (W) 18:45:43 145.475/437.950
CUTE-I 18 Dec 18:40:36 18:45:41 42° 262° (W) 18:50:46 437.470
XW-2D 18 Dec 18:43:14 18:46:08 21° 266° (W) 18:49:04 145.860 - 145.880
Oscar 11 18 Dec 18:47:54 18:48:29 10° 60° (ENE) 18:49:03 .
KKS-1 18 Dec 18:53:07 18:56:57 30° 292° (WNW) 19:00:47 437.445
BEESAT 3 18 Dec 18:57:22 19:00:53 31° 116° (ESE) 19:04:27 437.485
XW-2B 18 Dec 19:00:12 19:02:20 14° 268° (W) 19:04:29 145.730 - 145.750
AO-73 18 Dec 19:04:24 19:07:34 22° 67° (ENE) 19:10:46 145.935
XW-2F 18 Dec 19:08:45 19:10:20 12° 269° (W) 19:11:57 145.980 - 146.000
STARS 18 Dec 19:22:53 19:26:51 34° 291° (WNW) 19:30:47 437.465
XW-2A 18 Dec 19:23:42 19:27:00 59° 75° (ENE) 19:30:20 145.665 - 145.685
RS-15 18 Dec 19:31:28 19:40:59 25° 4° (N) 19:50:10 29.354- 29.394
SEEDS 18 Dec 19:32:18 19:36:21 45° 261° (W) 19:40:27 437.485
AAUSAT CUBESAT 2 18 Dec 19:36:49 19:41:00 86° 77° (ENE) 19:45:13 437.432
STRAND 1 18 Dec 19:45:34 19:50:29 47° 99° (E) 19:55:22 437.568
BEESAT 2 18 Dec 19:48:29 19:52:01 30° 115° (ESE) 19:55:35 435.950
